Location: Rowland
(34.5359°N, 79.2929°W)
Time: 15:24:17
(UTC+00:00)

SR - All Passes

Search period start: 03 October 2022 00:00
Search period end: 13 October 2022 00:00
Orbit: 573 x 879 km, 66.7° (Epoch: 02 October)

Date Brightness Start Highest point End Pass type
(mag) Time Alt. Az. Time Alt. Az. Time Alt. Az.
03 Oct - 01:33:57 10° SSW 01:39:44 76° ESE 01:45:40 10° NNE visible
03 Oct - 03:18:37 10° W 03:22:25 17° NW 03:26:14 10° N night (unlit)
03 Oct - 10:19:55 10° N 10:24:13 25° NE 10:28:14 10° ESE visible
03 Oct - 12:01:40 10° NW 12:06:19 35° WSW 12:10:35 10° S daylight
04 Oct - 00:44:25 10° S 00:49:41 37° ESE 00:55:04 10° NE visible
04 Oct - 02:26:37 10° WSW 02:31:47 32° NW 02:37:00 10° N visible
04 Oct - 09:31:08 10° NNE 09:33:29 13° NE 09:35:45 10° ENE visible
04 Oct - 11:11:05 10° NNW 11:16:18 81° WSW 11:21:02 10° SSE daylight
04 Oct - 23:56:04 10° SE 23:59:49 18° ESE 00:03:38 10° ENE visible
05 Oct - 01:35:35 10° SW 01:41:21 61° WNW 01:47:13 10° NNE visible
05 Oct - 10:21:00 10° NNW 10:26:02 45° ENE 10:30:37 10° SE visible
05 Oct - 12:04:21 10° WNW 12:07:31 17° WSW 12:10:32 10° SW daylight
06 Oct - 00:45:21 10° SSW 00:51:08 69° ESE 00:57:01 10° NNE visible
06 Oct - 02:29:40 10° W 02:33:43 19° NW 02:37:47 10° N visible
06 Oct - 09:31:25 10° N 09:35:31 22° NE 09:39:20 10° ESE visible
06 Oct - 11:12:57 10° NW 11:17:42 39° WSW 11:22:02 10° S daylight
06 Oct - 23:55:57 10° S 00:01:06 34° ESE 00:06:20 10° NE visible
07 Oct - 01:37:49 10° WSW 01:43:06 34° NW 01:48:26 10° N visible
07 Oct - 08:42:58 10° NNE 08:44:44 12° NE 08:46:28 10° ENE visible
07 Oct - 10:22:27 10° NNW 10:27:39 90° WNW 10:32:21 10° SSE visible
07 Oct - 23:07:49 10° SE 23:11:15 16° ESE 23:14:41 10° ENE visible
08 Oct - 00:46:53 10° SW 00:52:42 66° WNW 00:58:35 10° NNE visible
08 Oct - 02:34:22 10° WNW 02:35:50 11° NW 02:37:19 10° NNW visible
08 Oct - 09:32:25 10° NNW 09:37:21 41° ENE 09:41:50 10° SE visible
08 Oct - 11:15:28 10° WNW 11:18:55 19° WSW 11:22:11 10° SSW daylight
08 Oct - 23:56:45 10° SSW 00:02:30 63° ESE 00:08:20 10° NNE visible
09 Oct - 01:40:43 10° W 01:45:01 20° NW 01:49:17 10° N visible
09 Oct - 08:42:56 10° N 08:46:47 20° NE 08:50:23 10° E visible
09 Oct - 10:24:15 10° NW 10:29:04 43° WSW 10:33:28 10° S visible
09 Oct - 23:07:28 10° SSE 23:12:29 30° ESE 23:17:34 10° NE visible
10 Oct - 00:49:00 10° SW 00:54:25 37° WNW 00:59:52 10° N visible
10 Oct - 07:55:06 10° NNE 07:55:58 10° NE 07:56:50 10° NE visible
10 Oct - 09:33:48 10° NNW 09:38:59 81° ENE 09:43:39 10° SSE visible
10 Oct - 22:19:37 10° SE 22:22:39 14° ESE 22:25:40 10° ENE daylight
10 Oct - 23:58:11 10° SSW 00:04:02 73° WNW 00:09:57 10° NNE visible
11 Oct - 01:44:56 10° WNW 01:47:04 12° NW 01:49:12 10° NNW visible
11 Oct - 08:43:50 10° N 08:48:38 37° ENE 08:53:00 10° SE visible
11 Oct - 10:26:36 10° WNW 10:30:18 21° WSW 10:33:46 10° SSW visible
11 Oct - 23:08:09 10° S 23:13:51 57° ESE 23:19:37 10° NE visible
12 Oct - 00:51:48 10° WSW 00:56:16 22° NW 01:00:46 10° N visible
12 Oct - 07:54:26 10° N 07:58:01 18° NE 08:01:24 10° E visible
12 Oct - 09:35:31 10° NW 09:40:24 48° WSW 09:44:51 10° S visible
12 Oct - 22:19:00 10° SSE 22:23:51 28° ESE 22:28:45 10° NE daylight
